Location: Nairn
(57.5833°N, 3.8667°W)
Time: 02:03:25
(UTC+00:00)

Vanguard 1 Rocket - Pass Details

Date: 03 December 2020
Orbit: 655 x 4221 km, 34.3° (Epoch: 20 January)

Event Time Altitude Azimuth Distance (km) Brightness Sun altitude
Exits shadow 03:19:51 35° 192° (SSW) 4,953 10.7 -40.3°
Maximum altitude 03:21:02 35° 187° (S) 4,873 10.7 -40.1°
Drops below altitude 10° 03:35:57 10° 130° (SE) 5,360 11.6 -38.3°
Sets 03:39:45 0° 121° (ESE) 5,932 12.0 -37.8°
